Regional Weather Roundup
Issued by NWS Wakefield, VA

Home | Current Version | Previous Version | Text Only | Print | Product List | Glossary Off
Versions: 1 2 3 4 5 6 7 8 9 10 11 12 13 14 15 16 17 18 19 20 21 22 23 24 25 26 27

000
ASUS41 KAKQ 290315
RWRAKQ

REGIONAL WEATHER ROUNDUP
NATIONAL WEATHER SERVICE WAKEFIELD VA
1100 PM EDT TUE MAR 28 2017

Note: "fair" indicates few or no clouds below 12,000 feet with no
significant weather and/or obstructions to visibility. * = Denotes
station may not report precipitation (e.g., rain,snow,etc.),
thunder or fog.

VAZ042-051-052>054-056-290400-
NORTHERN VIRGINIA

CITY           SKY/WX    TMP DP  RH WIND       PRES   REMARKS
WASH NATIONAL  CLOUDY    64  56  75 N10       29.95R
DULLES         CLOUDY    60  57  89 NW7       29.95R
FORT BELVOIR   CLOUDY    62  59  90 NW3       29.94R
QUANTICO       CLOUDY    65  59  81 N8        29.95R
FREDERICKSBRG* CLOUDY    65  58  79 N7        29.94R
STAFFORD*      CLOUDY    62  59  92 NW8       29.98R
WARRENTON      CLOUDY    63  55  77 CALM      29.95R
CULPEPER*      CLOUDY    61  58  92 CALM      29.97R
MANASSAS*      LGT RAIN N/A N/A N/A N10       29.95
LEESBURG*      CLOUDY    61  61 100 N6        29.97R
WINCHESTER     CLOUDY    57  54  88 NW6       29.98R
FRONT ROYAL*   CLOUDY    61  54  77 N6        29.97R
LURAY*         CLOUDY    63  54  72 NW9       29.98R
$$

VAZ048-049-060>072-079>083-290400-
CENTRAL AND SOUTH CENTRAL VIRGINIA

CITY           SKY/WX    TMP DP  RH WIND       PRES   REMARKS
RICHMOND       PTCLDY    61  57  87 NW3       29.92R
CHESTERFIELD*  FAIR      57  41  54 CALM      29.94R
PETERSBURG*    FOG       56  55  96 CALM      29.93R VSB 3/4
HANOVER        CLOUDY    62  57  83 NW5       29.95R
TAPPAHANNOCK*  CLEAR     58  58 100 W3        29.93R
QUINTON*       FAIR      57  57 100 CALM      29.91S
CHARLOTTSVILLE CLOUDY    59  57  93 N3        29.96R
GORDONSVILLE*  MOCLDY    55  55 100 CALM      29.95R
ORANGE*        CLOUDY    55  55 100 CALM      29.97R
LOUISA*        CLEAR     63  61  94 N3        29.94R
BUMPASS*       CLOUDY    57  57 100 CALM      29.94S
FARMVILLE*     CLEAR     61  60  98 N3        29.93S
CREWE*         CLOUDY    58  58 100 CALM      29.93S
FORT PICKETT*  FAIR     N/A N/A N/A CALM      29.93R
CHASE CITY*    FAIR      55  53  95 CALM      29.94S
CLARKSVILLE*   FAIR      63  54  72 W3        29.94R
SOUTH HILL*    CLEAR     55  55  99 CALM      29.99R
LAWRENCEVILLE* FAIR      56  55  94 MISG      29.93R
EMPORIA*       FOG       54  54 100 CALM      29.94R VSB 1
$$

VAZ088>098-290400-
SOUTHEAST VIRGINIA

CITY           SKY/WX    TMP DP  RH WIND       PRES   REMARKS
NORFOLK        CLEAR     62  60  93 CALM      29.90R
VIRGINIA BEACH PTCLDY    60  58  92 NW7       29.89R
NORFOLK NAVAL  MOCLDY    61  58  90 CALM      29.91R
WEST POINT*      N/A     55  55  97 CALM      29.93R VSB 1/4
SALUDA*        MOCLDY    55  55 100 CALM      29.90S VSB 1
NEWPORT NEWS   CLEAR     57  57 100 CALM      29.90S FOG
LANGLEY AFB    PTCLDY    58  58 100 CALM      29.89S
FORT EUSTIS    DRZL/FOG  57  55  94 CALM      29.88S VSB 1/2
WILLIAMSBURG*  CLEAR     61  57  88 CALM      29.92R
HR EXEC AP*      N/A     54  50  87 W3        29.90R VSB 1/2
FRANKLIN*      CLEAR     57  56  97 CALM      29.92S FOG
US460-WAKEFLD  PTCLDY    57  55  93 CALM      29.91S
$$

VAZ020-022-025-037-045-290400-
WEST CENTRAL AND SOUTHWEST VIRGINIA

CITY           SKY/WX    TMP DP  RH WIND       PRES   REMARKS
STAUNTON*      MOCLDY    60  51  70 N3        30.00R
WAYNESBORO*    CLOUDY    61  51  69 CALM      29.99R
HOT SPRINGS VA CLOUDY    52  45  76 NW12G18   30.05R
LYNCHBURG      CLEAR     54  48  80 CALM      29.98R
DANVILLE       CLEAR     59  51  75 SW6       29.97R
SOUTH BOSTON*  FAIR      58  56  94 SW3       29.96R
MARTINSVILLE   CLEAR     59  49  68 CALM      30.02R
ROANOKE        PTCLDY    59  49  69 W6        30.01R
BLACKSBURG     MOCLDY    57  51  81 W6        30.06S
DUBLIN*        CLOUDY    57  51  82 SW7       30.07R
MARION*        PTCLDY    56  50  79 SW6       30.10R
HILLSVILLE*    CLEAR     55  49  82 NW9       30.05R
RICHLANDS*     CLOUDY    55  51  87 NW5       30.09R
WISE*          CLOUDY    55  48  76 CALM      30.11R
ABINGDON*      CLOUDY    61  51  69 NW5       30.08R
$$

MDZ021>025-VAZ099-100-290400-
SOUTHERN MARYLAND AND THE DELMARVA PENINSULA

CITY           SKY/WX    TMP DP  RH WIND       PRES   REMARKS
PATUXENT RIVER PTCLDY    57  57 100 N9        29.92R
BAY BRIDGE APT CLOUDY    57  54  88 N7        29.94R
LEONARDTOWN    MOCLDY    57  55  94 CALM      29.95R
DOVER          CLOUDY    52  52 100 N12       29.92R
GEORGETOWN     CLOUDY    57  53  86 N7        29.92R
EASTON         PTCLDY    58  54  84 NE7       29.97R
CAMBRIDGE      CLEAR     59  55  88 N7        29.93R
SALISBURY      CLEAR     58  57  97 N10       29.91R
OCEAN CITY     PTCLDY    57  54  89 NE8       29.91R
WALLOPS ISLAND PTCLDY    60  57  89 NW7       29.90R
ACCOMACK*      PTCLDY    56  51  82 NW3       29.90R
$$

NCZ012>017-030>032-290400-
NORTH CENTRAL AND EASTERN NORTH CAROLINA

CITY           SKY/WX    TMP DP  RH WIND       PRES   REMARKS
ROANOKE RAPIDS FOG       55  55 100 CALM      29.93S VSB 1/2
RALEIGH        PTCLDY    63  52  67 CALM      29.96R
ELIZABETH CITY CLEAR     62  59  90 W8        29.91R
AHOSKIE*       FOG       55  54  99 CALM      29.93R VSB 1/2
EDENTON*       CLEAR     60  57  91 CALM      29.92S
CURRITUCK*     CLEAR     64  60  88 W5        29.91R
KILL DEVIL HLS NOT AVBL
MANTEO         CLEAR     61  60  96 W5        29.90R
CAPE HATTERAS  CLEAR     65  61  87 W9        29.89F
TARBORO*       NOT AVBL
GOLDSBORO      PTCLDY    62  62 100 CALM      29.92R
WASHINGTON     CLEAR     61  59  94 CALM      29.92F
GREENVILLE     CLEAR     59  57  94 CALM      29.94F
NEW BERN       FOG       60  60 100 CALM      29.93F VSB 1/4
WILMINGTON     CLEAR     64  60  87 CALM      29.93R
$$

VAZ048-290400-
ELSEWHERE

CITY           SKY/WX    TMP DP  RH WIND       PRES   REMARKS
HARRISBURG PA  CLOUDY    55  54  96 NW6       29.96R
BALTIMORE      CLOUDY    60  55  83 VRB3      29.94R
ANNAPOLIS      CLOUDY    59  54  83 N6        29.94R
ANDREWS AFB    CLOUDY    62  54  76 N9        29.94R
PHILADELPHIA   CLOUDY    49  46  90 N8        29.94R
HENDERSON NC   CLEAR     58  51  78 CALM      29.95S
GREENSBORO     PTCLDY    63  51  65 NW10      29.98R
ROCKY MOUNT    CLEAR     57  57 100 SW3       29.93R
$$

VAZ100-290400-
MARINE

STATION/POSITION TIME  TEMP    WIND        PRES    WAVE   SWELL
                       AIR SEA DIR/SP/G            HT/PER HT/PER
                 (UTC) (F)     (DEG/KT/KT) (MB)    (FT/S) (FT/S)
CAPE MAY NJ      0248   49 46  330/  5/  7 1012.7R
LEWES DE         0248   48 46  330/  6/  7 1013.0R
OCEAN-CITY-INLET 0248   54 44   30/  8/ 13 1013.1R
WACHAPREAGUE VA  0248   57 56   CALM  /  2 1011.9R
THOMAS POINT MD  0300   53 47   20/ 10/ 11   N/A
GOOSES REEF MD   0250   54      40/  8/ 10 1014.2R
COVE POINT MD    0248   58      30/ 14/ 15 1014.0R
SOLOMONS ISLAND  0248   59 47  360/  5/  6   N/A
BISHOPS HEAD MD  0248   60 56  340/  6/  8 1013.2R
PINEY POINT MD   0242          330/  5/  5   N/A
POTOMAC MD       0250   56     300/  6/  6 1011.8R
CAMBRIDGE MD     0248   58 48  310/  4/  5 1012.6R
LEWISETTA VA     0248   58 55  350/  2/  3 1012.7R
RAPPAHANNOCK LGT 0242          290/ 12/ 12 1012.9R
STINGRAY PT      0250   54     320/  6/  8 1012.4R
YORK RVR RNG VA  0248   60     320/  7/  8 1011.6R
YORKTOWN VA      0248   59 51  270/  3/  7 1012.1R
JAMESTOWN VA     0250   58     230/  2/  4   N/A
DOMINION TERM VA 0248   57     290/  3/  3 1012.7R
KIPTOPEKE VA     0248      51                N/A
CHES BAY BRIDGE  0248   60 50  280/  7/  8 1012.3R
CAPE HENRY VA    0248   64     270/  7/  8   N/A
WILLOUBY STN VA  0248   63     280/  6/  6 1013.4R
S CRANEY ISL VA  0248   61     290/  5/  6 1012.4R
CAPE HENRY BUOY  0242      51                N/A     3/ 9   2/11
CAPE CHARLES BUO 0251      49                N/A     3/10   2/11
OFFSHORE WE BUOY 0251      51                N/A     3/ 9   2/11
64NM E OF VA BCH 0250   55 49  220/  6/  8 1011.8F   4/10   3/10
DUCK PIER NC     0248   62 47  250/  8/ 10 1011.7R
44100 DUCK FRF   0235      52                N/A     3/10   2/11
44056 DUCK FRF   0230      50                N/A     2/11   2/11
OREGON INLET NC  0242   58 62  230/  3/  4 1012.1R
HATTERAS NC      0248   64 63  250/  9/ 11 1011.9F
DIAMOND SHLS NC  0250   71 74  260/ 19/ 21 1012.0F   5/10   3/10
CAPE LOOKOUT NC  0300   65     250/  9/ 11 1012.6F
$$




USA.gov is the U.S. government's official web portal to all federal, state and local government web resources and services.